Location: Izdebno
(52.6670°N, 16.2170°E)
Time: 02:53:23
(UTC+02:00)

Transit 2A - Pass Details

Date: 24 February 2024
Orbit: 596 x 956 km, 66.7° (Epoch: 21 April)

Event Time Altitude Azimuth Distance (km) Brightness Sun altitude
Rises 19:40:07 0° 197° (SSW) 2,855 9.0 -21.3°
Reaches altitude 10° 19:42:27 10° 190° (S) 1,938 8.1 -21.7°
Enters shadow 19:43:46 19° 181° (S) 1,458 7.3 -21.9°
Maximum altitude 19:46:30 41° 120° (ESE) 872 - -22.3°
Drops below altitude 10° 19:50:36 10° 50° (NE) 1,963 - -22.9°
Sets 19:52:58 0° 43° (NE) 2,897 - -23.2°
